Lakeland Region, FL

12:57 PM EDT on April 24, 2017 (GMT -0400)
Lakeland Linder Regional

Weather History for KLAL - October, 2012

Change the Weather History Date:

Monday, October 22, 2012

  Actual Average Record
Temperature  
Mean Temperature 73 °F -  
Max Temperature 86 °F 80 °F 89 °F (2006)
Min Temperature 60 °F 63 °F 46 °F (1989)
Cooling Degree Days 8    
Growing Degree Days 23 (Base 50)    
Moisture  
Dew Point 59 °F    
Average Humidity 69    
Maximum Humidity 88    
Minimum Humidity 37    
Precipitation  
Precipitation 0.00 in - - ()
Sea Level Pressure  
Sea Level Pressure 30.05 in    
Wind  
Wind Speed 7 mph (NE)    
Max Wind Speed 16 mph    
Max Gust Speed 23 mph    
Visibility 13 miles    
Events      
Averages and records for this station are not official NWS values.
T = Trace of Precipitation, MM = Missing Value Source: NWS Daily Summary

Daily Weather History Graph

Daily Weather History Graph

Search for Another Location

Airport or City:

Trip Planner

Search our weather history database for the weather conditions in past years. The results will help you decide how hot, cold, wet, or windy it might be!

Date:

Astronomy

Oct. 22, 2012 Rise Set
Actual Time 7:32 AM EDT 6:51 PM EDT
Civil Twilight 7:09 AM EDT 7:15 PM EDT
Nautical Twilight 6:41 AM EDT 7:42 PM EDT
Astronomical Twilight 6:14 AM EDT 8:10 PM EDT
Moon 2:26 PM EDT (10/22) 12:53 AM EDT (10/22)
Length of Visible Light 12h 06m
Length of Day
11h 18m
First Quarter, 56% of the Moon is Illuminated
Oct 22
First Quarter
Oct 29
Full
Nov 6
Last Quarter
Nov 13
New
Nov 20
First Quarter

Hourly Weather History & Observations

Time (EDT) Temp. Heat Index Dew Point Humidity Pressure Visibility Wind Dir Wind Speed Gust Speed Precip Events Conditions
12:35 AM 64.4 °F - 57.2 °F 77% 30.06 in 10.0 mi NNE 6.9 mph - N/A   Clear
12:55 AM 64.4 °F - 57.2 °F 77% 30.06 in 10.0 mi NNE 8.1 mph - N/A   Clear
1:15 AM 64.4 °F - 57.2 °F 77% 30.06 in 10.0 mi NNE 6.9 mph - N/A   Clear
1:35 AM 64.4 °F - 57.2 °F 77% 30.05 in 10.0 mi NE 6.9 mph - N/A   Clear
1:55 AM 64.4 °F - 55.4 °F 73% 30.05 in 10.0 mi NE 8.1 mph - N/A   Clear
2:35 AM 64.4 °F - 57.2 °F 77% 30.05 in 10.0 mi NNE 6.9 mph - N/A   Clear
2:55 AM 64.4 °F - 57.2 °F 77% 30.04 in 10.0 mi NNE 6.9 mph - N/A   Clear
3:55 AM 62.6 °F - 57.2 °F 82% 30.04 in 10.0 mi North 5.8 mph - N/A   Mostly Cloudy
4:15 AM 62.6 °F - 57.2 °F 82% 30.04 in 10.0 mi North 4.6 mph - N/A   Clear
4:55 AM 62.6 °F - 57.2 °F 82% 30.04 in 10.0 mi North 4.6 mph - N/A   Clear
5:50 AM 62.6 °F - 57.2 °F 82% 30.04 in 15.0 mi North 3.5 mph - N/A   Clear
5:55 AM 62.6 °F - 57.2 °F 82% 30.04 in 10.0 mi Calm Calm - N/A   Clear
6:15 AM 62.6 °F - 57.2 °F 82% 30.04 in 10.0 mi North 3.5 mph - N/A   Clear
6:35 AM 60.8 °F - 57.2 °F 88% 30.05 in 10.0 mi North 4.6 mph - N/A   Clear
6:50 AM 62.6 °F - 59.0 °F 88% 30.06 in 15.0 mi North 3.5 mph - N/A   Clear
7:50 AM 62.6 °F - 59.0 °F 88% 30.08 in 15.0 mi NNE 3.5 mph - N/A   Clear
8:50 AM 66.2 °F - 60.8 °F 83% 30.09 in 15.0 mi NE 6.9 mph - N/A   Clear
9:50 AM 73.4 °F - 60.8 °F 65% 30.10 in 15.0 mi NNE 5.8 mph - N/A   Clear
10:50 AM 78.8 °F - 60.8 °F 54% 30.10 in 15.0 mi NE 9.2 mph - N/A   Clear
11:50 AM 80.6 °F 81.5 °F 60.8 °F 51% 30.09 in 15.0 mi ENE 16.1 mph 19.6 mph N/A   Scattered Clouds
12:52 PM 80.6 °F 81.5 °F 60.8 °F 51% 30.07 in 15.0 mi ENE 11.5 mph 20.7 mph N/A   Mostly Cloudy
1:50 PM 82.4 °F 82.5 °F 59.0 °F 45% 30.04 in 15.0 mi ENE 13.8 mph - N/A   Mostly Cloudy
2:50 PM 84.2 °F 83.5 °F 57.2 °F 40% 30.01 in 15.0 mi East 11.5 mph 20.7 mph N/A   Mostly Cloudy
3:52 PM 86.0 °F 84.9 °F 57.2 °F 37% 30.00 in 15.0 mi ENE 13.8 mph 20.7 mph N/A   Scattered Clouds
4:53 PM 82.4 °F 82.9 °F 60.8 °F 48% 30.01 in 15.0 mi East 16.1 mph 23.0 mph N/A   Scattered Clouds
5:55 PM 80.6 °F 80.8 °F 57.2 °F 45% 30.02 in 20.0 mi ENE 11.5 mph 17.3 mph N/A   Scattered Clouds
6:55 PM 77.0 °F - 59.0 °F 54% 30.03 in 20.0 mi East 11.5 mph - N/A   Partly Cloudy
7:53 PM 75.2 °F - 60.8 °F 61% 30.05 in 15.0 mi ENE 11.5 mph 16.1 mph N/A   Scattered Clouds
8:51 PM 73.4 °F - 62.6 °F 69% 30.08 in 15.0 mi ENE 11.5 mph - N/A   Partly Cloudy
9:51 PM 71.6 °F - 62.6 °F 73% 30.08 in 15.0 mi NE 8.1 mph - N/A   Partly Cloudy
10:55 PM 69.8 °F - 60.8 °F 73% 30.08 in 10.0 mi NNE 6.9 mph - N/A   Scattered Clouds
11:35 PM 68.0 °F - 60.8 °F 78% 30.08 in 10.0 mi NNE 8.1 mph - N/A   Clear